Weather History for KMCC - January, 2013

Change the Weather History Date:

Sunday, January 6, 2013

  Actual Average (KMHR) Record (KMHR)
Temperature  
Mean Temperature 42 °F -  
Max Temperature 50 °F 50 °F 62 °F (2015)
Min Temperature 35 °F 38 °F 28 °F (2012)
Degree Days  
Heating Degree Days 22    
Moisture  
Dew Point 42 °F    
Average Humidity 91    
Maximum Humidity 100    
Minimum Humidity 71    
Precipitation  
Precipitation 0.00 in - - ()
Sea Level Pressure  
Sea Level Pressure 30.16 in    
Wind  
Wind Speed 5 mph (North)    
Max Wind Speed 9 mph    
Max Gust Speed -    
Visibility 4 miles    
Events Rain    
Averages and records for this station are not official NWS values.
T = Trace of Precipitation, MM = Missing Value Source: NWS Daily Summary

Daily Weather History Graph

Daily Weather History Graph

Search for Another Location

Airport or City:

Trip Planner

Search our weather history database for the weather conditions in past years. The results will help you decide how hot, cold, wet, or windy it might be!

Date:

Astronomy

Jan. 06, 2013 Rise Set
Actual Time 7:23 AM PST 4:59 PM PST
Civil Twilight 6:54 AM PST 5:29 PM PST
Nautical Twilight 6:21 AM PST 6:02 PM PST
Astronomical Twilight 5:49 AM PST 6:34 PM PST
Moon 1:45 AM PST (1/6) 12:29 PM PST (1/6)
Length of Visible Light 10h 34m
Length of Day
9h 35m
Waning Crescent, 32% of the Moon is Illuminated
Jan 6
Waning Crescent
Jan 11
New
Jan 18
First Quarter
Jan 26
Full
Feb 3
Last Quarter

Hourly Weather History & Observations

Time (PST) Temp. Windchill Dew Point Humidity Pressure Visibility Wind Dir Wind Speed Gust Speed Precip Events Conditions
12:10 AM 42.8 °F 37.5 °F 41.0 °F 93% 30.13 in 2.5 mi North 9.2 mph - N/A Rain Rain
12:30 AM 42.8 °F 39.3 °F 41.0 °F 93% 30.12 in 2.5 mi NNW 5.8 mph - N/A Rain Rain
12:50 AM 42.8 °F 38.0 °F 41.0 °F 93% 30.12 in 3.0 mi North 8.1 mph - N/A Rain Light Rain
1:10 AM 42.8 °F 39.3 °F 41.0 °F 93% 30.12 in 2.5 mi North 5.8 mph - N/A Rain Light Rain
1:30 AM 42.8 °F 39.3 °F 41.0 °F 93% 30.13 in 2.5 mi NNE 5.8 mph - N/A Rain Light Rain
1:50 AM 42.8 °F 39.3 °F 41.0 °F 93% 30.13 in 2.0 mi North 5.8 mph - N/A Rain Light Rain
2:10 AM 44.6 °F 40.2 °F 42.8 °F 93% 30.13 in 3.0 mi NE 8.1 mph - N/A Rain Light Rain
2:30 AM 44.6 °F 41.4 °F 42.8 °F 93% 30.14 in 3.0 mi NE 5.8 mph - N/A Rain Light Rain
2:50 AM 44.6 °F 42.2 °F 42.8 °F 93% 30.13 in 3.0 mi NE 4.6 mph - N/A Rain Light Rain
3:10 AM 44.6 °F 40.7 °F 42.8 °F 93% 30.13 in 2.5 mi NNE 6.9 mph - N/A Rain Light Rain
3:30 AM 42.8 °F 39.3 °F 41.0 °F 93% 30.13 in 2.5 mi North 5.8 mph - N/A Rain Light Rain
3:50 AM 42.8 °F 38.6 °F 41.0 °F 93% 30.14 in 2.0 mi North 6.9 mph - N/A Rain Light Rain
4:10 AM 42.8 °F 39.3 °F 42.8 °F 100% 30.14 in 2.0 mi North 5.8 mph - N/A Rain Light Rain
4:30 AM 42.8 °F 40.1 °F 42.8 °F 100% 30.14 in 2.0 mi North 4.6 mph - N/A Rain Light Rain
4:50 AM 42.8 °F 41.1 °F 42.8 °F 100% 30.13 in 1.8 mi North 3.5 mph - N/A Rain Light Rain
5:10 AM 42.8 °F 40.1 °F 42.8 °F 100% 30.13 in 2.0 mi North 4.6 mph - N/A   Overcast
5:30 AM 42.8 °F 40.1 °F 42.8 °F 100% 30.13 in 2.0 mi North 4.6 mph - N/A   Overcast
5:50 AM 42.8 °F 39.3 °F 42.8 °F 100% 30.14 in 1.8 mi North 5.8 mph - N/A   Overcast
6:10 AM 42.8 °F 40.1 °F 42.8 °F 100% 30.15 in 1.5 mi WNW 4.6 mph - N/A Rain Light Rain
6:30 AM 42.8 °F 40.1 °F 42.8 °F 100% 30.16 in 1.8 mi NNW 4.6 mph - N/A Rain Light Rain
6:50 AM 42.8 °F 41.1 °F 42.8 °F 100% 30.16 in 1.8 mi NNE 3.5 mph - N/A Rain Light Rain
7:10 AM 42.8 °F 39.3 °F 42.8 °F 100% 30.17 in 1.8 mi North 5.8 mph - N/A Rain Light Rain
7:30 AM 44.6 °F 42.2 °F 42.8 °F 93% 30.17 in 2.5 mi NNE 4.6 mph - N/A Rain Light Rain
7:50 AM 44.6 °F 40.7 °F 42.8 °F 93% 30.17 in 1.2 mi North 6.9 mph - N/A   Overcast
8:10 AM 44.6 °F 42.2 °F 42.8 °F 93% 30.17 in 1.8 mi North 4.6 mph - N/A   Overcast
8:30 AM 44.6 °F 42.2 °F 42.8 °F 93% 30.18 in 3.0 mi NNE 4.6 mph - N/A   Overcast
8:50 AM 44.6 °F 43.1 °F 42.8 °F 93% 30.19 in 3.0 mi NE 3.5 mph - N/A   Overcast
9:10 AM 44.6 °F 43.1 °F 42.8 °F 93% 30.20 in 3.0 mi NE 3.5 mph - N/A   Overcast
9:30 AM 44.6 °F 43.1 °F 42.8 °F 93% 30.21 in 3.0 mi ENE 3.5 mph - N/A   Overcast
9:50 AM 46.4 °F 45.2 °F 42.8 °F 87% 30.21 in 4.0 mi ENE 3.5 mph - N/A   Overcast
10:10 AM 46.4 °F 44.3 °F 44.6 °F 93% 30.21 in 4.0 mi NE 4.6 mph - N/A Rain Light Rain
10:30 AM 46.4 °F 44.3 °F 44.6 °F 93% 30.21 in 5.0 mi NE 4.6 mph - N/A Rain Light Rain
10:50 AM 48.2 °F - 44.6 °F 87% 30.20 in 5.0 mi NNE 4.6 mph - N/A Rain Light Rain
11:10 AM 48.2 °F - 44.6 °F 87% 30.19 in 6.0 mi NNW 3.5 mph - N/A   Scattered Clouds
11:30 AM 48.2 °F - 44.6 °F 87% 30.18 in 7.0 mi NNW 4.6 mph - N/A   Partly Cloudy
11:50 AM 50.0 °F - 42.8 °F 76% 30.18 in 8.0 mi North 5.8 mph - N/A   Mostly Cloudy
12:10 PM 50.0 °F - 44.6 °F 82% 30.17 in 7.0 mi NW 8.1 mph - N/A Rain Light Rain
12:30 PM 50.0 °F - 44.6 °F 82% 30.17 in 7.0 mi NW 5.8 mph - N/A Rain Light Rain
12:50 PM 50.0 °F - 42.8 °F 76% 30.16 in 8.0 mi North 3.5 mph - N/A Rain Light Rain
1:10 PM 50.0 °F - 46.4 °F 87% 30.16 in 5.0 mi WNW 6.9 mph - N/A Rain Light Rain
1:30 PM 48.2 °F - 44.6 °F 87% 30.16 in 5.0 mi WNW 6.9 mph - N/A Rain Light Rain
1:50 PM 48.2 °F - 46.4 °F 93% 30.17 in 7.0 mi West 6.9 mph - N/A Rain Light Rain
2:10 PM 48.2 °F - 44.6 °F 87% 30.17 in 6.0 mi WNW 5.8 mph - N/A Rain Light Rain
2:30 PM 48.2 °F - 44.6 °F 87% 30.16 in 7.0 mi West 5.8 mph - N/A Rain Light Rain
2:50 PM 48.2 °F - 42.8 °F 82% 30.16 in 9.0 mi West 3.5 mph - N/A Rain Light Rain
3:10 PM 50.0 °F - 41.0 °F 71% 30.15 in 9.0 mi Calm Calm - N/A   Clear
3:30 PM 50.0 °F - 41.0 °F 71% 30.15 in 9.0 mi Calm Calm - N/A Rain Light Rain
3:50 PM 50.0 °F - 41.0 °F 71% 30.15 in 9.0 mi West 4.6 mph - N/A   Clear
4:10 PM 50.0 °F - 41.0 °F 71% 30.16 in 10.0 mi West 3.5 mph - N/A Rain Light Rain
4:30 PM 48.2 °F - 41.0 °F 76% 30.16 in 9.0 mi WNW 5.8 mph - N/A Rain Light Rain
4:50 PM 48.2 °F - 42.8 °F 82% 30.16 in 8.0 mi West 5.8 mph - N/A Rain Light Rain
5:10 PM 46.4 °F 43.5 °F 42.8 °F 87% 30.16 in 7.0 mi WNW 5.8 mph - N/A   Clear
5:30 PM 44.6 °F 42.2 °F 41.0 °F 87% 30.16 in 9.0 mi West 4.6 mph - N/A Rain Light Rain
5:50 PM 46.4 °F - 41.0 °F 81% 30.16 in 10.0 mi Calm Calm - N/A Rain Light Rain
6:10 PM 44.6 °F - 41.0 °F 87% 30.17 in 10.0 mi Calm Calm - N/A Rain Light Rain
6:30 PM 44.6 °F - 41.0 °F 87% 30.17 in 8.0 mi Calm Calm - N/A Rain Light Rain
6:50 PM 42.8 °F 41.1 °F 41.0 °F 93% 30.17 in 7.0 mi NNE 3.5 mph - N/A Rain Light Rain
7:10 PM 41.0 °F - 39.2 °F 93% 30.17 in 5.0 mi Calm Calm - N/A Rain Light Rain
7:30 PM 41.0 °F - 39.2 °F 93% 30.18 in 5.0 mi Calm Calm - N/A Rain Light Rain
7:50 PM 41.0 °F - 39.2 °F 93% 30.18 in 7.0 mi Calm Calm - N/A Rain Light Rain
8:10 PM 41.0 °F - 39.2 °F 93% 30.18 in 5.0 mi Calm Calm - N/A   Clear
8:30 PM 41.0 °F - 39.2 °F 93% 30.19 in 2.5 mi Calm Calm - N/A   Clear
8:50 PM 41.0 °F - 39.2 °F 93% 30.20 in 3.0 mi Calm Calm - N/A Rain Light Rain
9:10 PM 39.2 °F - 39.2 °F 100% 30.19 in 4.0 mi Calm Calm - N/A Rain Light Rain
9:30 PM 39.2 °F 37.0 °F 37.4 °F 93% 30.18 in 1.5 mi East 3.5 mph - N/A Rain Light Rain
9:50 PM 39.2 °F 37.0 °F 37.4 °F 93% 30.18 in 3.0 mi SE 3.5 mph - N/A Rain Light Rain
10:10 PM 39.2 °F - 39.2 °F 100% 30.17 in 3.0 mi Calm Calm - N/A Rain Light Rain
10:30 PM 39.2 °F - 39.2 °F 100% 30.18 in 2.0 mi Calm Calm - N/A Rain Light Rain
10:50 PM 37.4 °F 34.9 °F 37.4 °F 100% 30.18 in 1.8 mi NW 3.5 mph - N/A   Clear
11:10 PM 37.4 °F 34.9 °F 35.6 °F 93% 30.18 in 2.5 mi NW 3.5 mph - N/A   Clear
11:30 PM 35.6 °F 30.7 °F 35.6 °F 100% 30.18 in 2.0 mi NW 5.8 mph - N/A   Clear
11:50 PM 35.6 °F 30.7 °F 35.6 °F 100% 30.18 in 2.0 mi NNW 5.8 mph - N/A   Clear